User: anonymous   Login
Location: Newark
(40.7066°N, 111.8219°W)
Time: 19:59:01
(UTC+00:00)
Language:

Transit 2A Rocket - Orbit

View from above orbital plane
View from above orbital plane
View from above satellite
View from above satellite

Ground track
Ground track

The orbit data is extracted from the following two-line orbital elements,

1    47U 60007C   21026.39300311  .00000024  00000-0  30523-4 0  9998
2    47  66.6658 278.8580 0222894 141.6653 220.0535 14.42127844167278
Epoch (UTC): 26 January 2021 09:25:55
Eccentricity: 0.0222894
inclination: 66.6658°
perigee height: 592 km
apogee height: 910 km
right ascension of ascending node: 278.8580°
argument of perigee: 141.6653°
revolutions per day: 14.42127844
mean anomaly at epoch: 220.0535°
orbit number at epoch: 16727

The dashed part of the orbit path shows where the satellite is in the earth's shadow,  

DLR